Content
SEND FEEDBACK

Daily
Averages
Monthly
Summary
India

AMRITSAR, INDIA


Home > Asia > India
Elevation: 752 feet     Latitude: 31 42N     Longitude: 074 47E

WEATHER
 
SELECT A DAY
Number of Records: 125,355;   Date Range: 7/1/96 - 8/10/14
 
SHARE

PRINT THIS DATA

[ ← Previous Day ]
WEATHER ALMANAC - AUGUST 1, 2013
[ Next Day → ]
[ °C ]   °F
Weather ElementAverageHighLow
Temperature86.5 °F91.4 °F (3:00 pm)84 °F (8:30 am)
Dewpoint80.3 °F85 °F (5:30 am)76 °F (11:30 am)
Humidity81.2 %100 % (4:30 am)66 % (5:30 pm)
Barometer29.49 in29.56 in (9:30 am)29.40 in (2:30 am)
Wind Speed4.2 mph11.5 mph (10:00 am)
Weather ElementAverage
Visibility2.5 mi
Wind DirectionENE (73.5 °)

Weather ElementTotal
Precipitation---
Cooling Degree Days22.7 (Base 65)
Growing Degree Days37.7 (Base 50)
Averaged from 27 records on August 1, 2013
WEATHER CONDITIONS BREAKOUT
WIND DIRECTION BREAKOUT
WEATHER BY HOUR - AUGUST 1, 2013
[ °C ]   °F
Local TimeTemperatureDewpointHumidityBarometerVisibilityWind DirectionWind SpeedGust SpeedPrecipitationEventsConditions
12:30 AM87.8 °F80.6 °F79 %29.44 in2.5 miSouth (180°)10.4 mphScattered Clouds
2:30 AM85.0 °F81.0 °F85 %29.40 in2.0 miCalmHail-ThunderstormHeavy Thunderstorms with Hail
3:00 AM84.2 °F80.6 °F89 %29.44 in2.5 miCalmScattered Clouds
3:30 AM84.2 °F80.6 °F89 %29.44 in2.5 miCalmScattered Clouds
4:30 AM84.2 °F84.2 °F100 %29.44 in2.5 miCalmScattered Clouds
5:30 AM84.2 °F84.2 °F100 %29.47 in2.5 miEast (90°)9.2 mphScattered Clouds
5:30 AM85.0 °F85.0 °F98 %29.44 in2.0 miEast (90°)9.2 mphMist
8:00 AM84.2 °F82.4 °F94 %29.53 in2.5 miEast (90°)4.6 mphOvercast
8:30 AM84.0 °F81.0 °F87 %29.51 in2.0 mi°3.5 mphMist
8:30 AM84.2 °F82.4 °F94 %29.53 in2.5 miVariable3.5 mphOvercast
9:30 AM84.2 °F80.6 °F89 %29.56 in2.5 miSSE (150°)9.2 mphOvercast
10:00 AM84.2 °F80.6 °F89 %29.56 in2.5 miSSE (160°)11.5 mphOvercast
11:30 AM86.0 °F77.0 °F74 %29.56 in3.1 miSSW (200°)9.2 mphHaze
11:30 AM86.0 °F76.0 °F67 %29.52 in2.0 miSSW (200°)9.2 mphHaze
1:00 PM87.8 °F77.0 °F70 %29.53 in3.1 miVariable2.3 mphHaze
3:00 PM91.4 °F80.6 °F71 %29.50 in2.5 miEast (100°)5.8 mphHaze
3:30 PM87.8 °F80.6 °F79 %29.50 in2.5 miSE (130°)5.8 mphHaze
4:00 PM89.6 °F80.6 °F75 %29.50 in2.5 miSE (140°)4.6 mphHaze
5:00 PM89.6 °F80.6 °F75 %29.47 in3.1 miVariable1.2 mphHaze
5:30 PM90.0 °F80.0 °F66 %29.42 in2.0 miCalmHaze
6:30 PM89.6 °F80.6 °F75 %29.47 in3.1 miCalmHaze
7:30 PM87.8 °F80.6 °F79 %29.50 in3.1 miVariable1.2 mphHaze
8:00 PM87.8 °F80.6 °F79 %29.50 in3.1 miVariable3.5 mphHaze
8:30 PM87.0 °F78.0 °F68 %29.47 in2.0 miCalmHaze
8:30 PM87.8 °F78.8 °F75 %29.50 in3.1 miCalmHaze
9:30 PM86.0 °F78.8 °F79 %29.53 in3.1 miVariable3.5 mphHaze
11:30 PM85.0 °F76.0 °F67 %29.47 in2.0 miSSE (160°)5.8 mphHaze
Hourly data recorded from VIAR, located miles away from Amritsar, India







STORIES FROM OUR PARTNERS